H1 CPF 2 NER 2023 7 9 9 190 01 glonass143 H2 2007501 9143 46805 2023 7 9 0 0 0 2023 7 12 23 45 0 900 1 1 0 0 0 1 H9 10 0 60134 0.00000 0 -6147997.318 21302372.428 12609872.605 10 0 60134 900.00000 0 -6726396.868 22563392.440 9804869.490 10 0 60134 1800.00000 0 -7055641.932 23542074.738 6809321.837 10 0 60134 2700.00000 0 -7170799.693 24193007.917 3681407.005 10 0 60134 3600.00000 0 -7115486.898 24480923.642 481911.343 10 0 60134 4500.00000 0 -6939778.567 24382227.068 -2726954.355 10 0 60134 5400.00000 0 -6697846.860 23886056.466 -5882770.000 10 0 60134 6300.00000 0 -6445430.855 22994826.259 -8924127.573 10 0 60134 7200.00000 0 -6237245.392 21724229.498 -11791834.017 10 0 60134 8100.00000 0 -6124439.893 20102698.791 -14430071.269 10 0 60134 9000.00000 0 -6152215.926 18170347.662 -16787490.001 10 0 60134 9900.00000 0 -6357705.616 15977436.443 -18818215.006 10 0 60134 10800.00000 0 -6768201.703 13582426.854 -20482742.146 10 0 60134 11700.00000 0 -7399815.081 11049706.775 -21748709.180 10 0 60134 12600.00000 0 -8256617.312 8447080.483 -22591525.414 10 0 60134 13500.00000 0 -9330304.948 5843129.313 -22994848.140 10 0 60134 14400.00000 0 -10600400.339 3304552.816 -22950896.947 10 0 60134 15300.00000 0 -12034980.857 893601.097 -22460600.205 10 0 60134 16200.00000 0 -13591906.168 -1334295.116 -21533571.341 10 0 60134 17100.00000 0 -15220492.192 -3332598.730 -20187915.786 10 0 60134 18000.00000 0 -16863561.576 -5065359.431 -18449872.711 10 0 60134 18900.00000 0 -18459784.718 -6508456.472 -16353298.831 10 0 60134 19800.00000 0 -19946213.119 -7650340.827 -13939004.528 10 0 60134 20700.00000 0 -21260898.777 -8492247.459 -11253955.455 10 0 60134 21600.00000 0 -22345489.688 -9047870.726 -8350355.346 10 0 60134 22500.00000 0 -23147692.559 -9342518.461 -5284628.069 10 0 60134 23400.00000 0 -23623499.379 -9411782.095 -2116319.016 10 0 60134 24300.00000 0 -23739084.504 -9299780.463 1093062.575 10 0 60134 25200.00000 0 -23472292.770 -9057052.691 4281237.641 10 0 60134 26100.00000 0 -22813656.387 -8738190.161 7386364.244 10 0 60134 27000.00000 0 -21766898.158 -8399308.246 10348233.978 10 0 60134 27900.00000 0 -20348900.096 -8095465.005 13109434.728 10 0 60134 28800.00000 0 -18589138.830 -7878135.920 15616457.511 10 0 60134 29700.00000 0 -16528611.305 -7792851.176 17820726.443 10 0 60134 30600.00000 0 -14218295.339 -7877094.855 19679532.599 10 0 60134 31500.00000 0 -11717208.707 -8158554.352 21156854.425 10 0 60134 32400.00000 0 -9090146.789 -8653793.557 22224049.722 10 0 60134 33300.00000 0 -6405191.838 -9367405.652 22860406.571 10 0 60134 34200.00000 0 -3731096.167 -10291681.525 23053543.171 10 0 60134 35100.00000 0 -1134646.614 -11406808.383 22799649.225 10 0 60134 36000.00000 0 1321881.740 -12681591.313 22103564.272 10 0 60134 36900.00000 0 3583078.090 -14074668.828 20978691.129 10 0 60134 37800.00000 0 5602458.158 -15536172.930 19446745.525 10 0 60134 38700.00000 0 7344151.368 -17009765.632 17537345.802 10 0 60134 39600.00000 0 8784143.408 -18434967.883 15287449.609 10 0 60134 40500.00000 0 9911022.894 -19749684.350 12740647.296 10 0 60134 41400.00000 0 10726201.277 -20892818.775 9946324.644 10 0 60134 42300.00000 0 11243597.017 -21806870.289 6958710.287 10 0 60134 43200.00000 0 11488797.525 -22440401.287 3835825.723 10 0 60134 44100.00000 0 11497734.366 -22750272.410 638358.031 10 0 60134 45000.00000 0 11314928.002 -22703549.447 -2571522.619 10 0 60134 45900.00000 0 10991376.673 -22279000.602 -5731377.236 10 0 60134 46800.00000 0 10582179.436 -21468119.665 -8779719.706 10 0 60134 47700.00000 0 10143994.791 -20275630.623 -11657221.198 10 0 60134 48600.00000 0 9732443.508 -18719451.241 -14307872.889 10 0 60134 49500.00000 0 9399566.663 -16830116.112 -16680083.490 10 0 60134 50400.00000 0 9191447.535 -14649682.656 -18727689.416 10 0 60134 51300.00000 0 9146098.932 -12230165.468 -20410857.451 10 0 60134 52200.00000 0 9291706.089 -9631564.252 -21696862.053 10 0 60134 53100.00000 0 9645300.006 -6919567.747 -22560722.156 10 0 60134 54000.00000 0 10211917.678 -4163029.425 -22985685.272 10 0 60134 54900.00000 0 10984284.935 -1431320.185 -22963549.821 10 0 60134 55800.00000 0 11943035.377 1208331.842 -22494819.853 10 0 60134 56700.00000 0 13057456.255 3693403.942 -21588689.595 10 0 60134 57600.00000 0 14286729.850 5968437.892 -20262858.552 10 0 60134 58500.00000 0 15581618.046 7987098.020 -18543181.121 10 0 60134 59400.00000 0 16886519.139 9713843.701 -16463157.837 10 0 60134 60300.00000 0 18141810.258 11125147.923 -14063278.373 10 0 60134 61200.00000 0 19286376.754 12210212.663 -11390229.305 10 0 60134 62100.00000 0 20260222.055 12971152.925 -8495982.280 10 0 60134 63000.00000 0 21007048.133 13422643.646 -5436780.504 10 0 60134 63900.00000 0 21476697.936 13591046.099 -2272043.572 10 0 60134 64800.00000 0 21627357.060 13513052.286 936787.831 10 0 60134 65700.00000 0 21427422.074 13233905.941 4127444.683 10 0 60134 66600.00000 0 20856956.991 12805276.332 7238036.440 10 0 60134 67500.00000 0 19908676.768 12282875.497 10208248.436 10 0 60134 68400.00000 0 18588416.522 11723919.985 12980506.762 10 0 60134 69300.00000 0 16915066.720 11184544.396 15501088.269 10 0 60134 70200.00000 0 14919976.800 10717275.759 17721154.709 10 0 60134 71100.00000 0 12645851.694 10368674.883 19597691.657 10 0 60134 72000.00000 0 10145186.655 10177243.611 21094334.797 10 0 60134 72900.00000 0 7478304.682 10171685.640 22182068.450 10 0 60134 73800.00000 0 4711077.026 10369593.712 22839783.618 10 0 60134 74700.00000 0 1912420.232 10776618.260 23054685.378 10 0 60134 75600.00000 0 -848327.848 11386152.630 22822542.120 10 0 60134 76500.00000 0 -3504045.647 12179548.613 22147771.927 10 0 60134 77400.00000 0 -5992371.044 13126854.121 21043364.085 10 0 60134 78300.00000 0 -8258045.760 14188043.149 19530636.687 10 0 60134 79200.00000 0 -10254964.724 15314687.647 17638834.071 10 0 60134 80100.00000 0 -11947845.863 16452002.355 15404570.839 10 0 60134 81000.00000 0 -13313451.373 17541177.762 12871132.036 10 0 60134 81900.00000 0 -14341309.809 18521903.930 10087641.972 10 0 60134 82800.00000 0 -15033908.969 19334979.352 7108116.905 10 0 60134 83700.00000 0 -15406351.631 19924894.939 3990419.341 10 0 60134 84600.00000 0 -15485488.749 20242283.734 795134.007 10 0 60134 85500.00000 0 -15308566.849 20246132.118 -2415612.554 10 0 60135 0.00000 0 -14921447.081 19905658.041 -5579365.041 10 0 60135 900.00000 0 -14376471.500 19201775.369 -8634562.507 10 0 60135 1800.00000 0 -13730068.056 18128081.605 -11521742.531 10 0 60135 2700.00000 0 -13040195.774 16691325.295 -14184707.721 10 0 60135 3600.00000 0 -12363739.641 14911332.501 -16571626.685 10 0 60135 4500.00000 0 -11753966.141 12820394.188 -18636048.968 10 0 60135 5400.00000 0 -11258147.919 10462139.438 -20337813.391 10 0 60135 6300.00000 0 -10915458.633 7889941.031 -21643831.857 10 0 60135 7200.00000 0 -10755227.397 5164919.751 -22528733.290 10 0 60135 8100.00000 0 -10795626.759 2353630.471 -22975355.411 10 0 60135 9000.00000 0 -11042849.600 -474473.677 -22975075.097 10 0 60135 9900.00000 0 -11490809.530 -3249693.579 -22527971.316 10 0 60135 10800.00000 0 -12121377.147 -5904742.763 -21642817.967 10 0 60135 11700.00000 0 -12905141.852 -8377302.236 -20336907.129 10 0 60135 12600.00000 0 -13802666.749 -10612365.819 -18635706.588 10 0 60135 13500.00000 0 -14766183.378 -12564279.288 -16572358.559 10 0 60135 14400.00000 0 -15741654.528 -14198389.490 -14187029.638 10 0 60135 15300.00000 0 -16671117.881 -15492235.998 -11526124.803 10 0 60135 16200.00000 0 -17495211.444 -16436237.106 -8641381.019 10 0 60135 17100.00000 0 -18155774.101 -17033843.167 -5588858.222 10 0 60135 18000.00000 0 -18598411.491 -17301152.588 -2427847.646 10 0 60135 18900.00000 0 -18774918.927 -17266008.352 780281.087 10 0 60135 19800.00000 0 -18645459.188 -16966614.620 3973271.428 10 0 60135 20700.00000 0 -18180403.410 -16449733.026 7089186.585 10 0 60135 21600.00000 0 -17361757.540 -15768535.683 10067607.914 10 0 60135 22500.00000 0 -16184114.285 -14980206.126 12850801.881 10 0 60135 23400.00000 0 -14655090.391 -14143389.619 15384833.205 10 0 60135 24300.00000 0 -12795230.611 -13315600.279 17620603.117 10 0 60135 25200.00000 0 -10637381.790 -12550693.884 19514793.295 10 0 60135 26100.00000 0 -8225562.505 -11896512.228 21030697.973 10 0 60135 27000.00000 0 -5613374.365 -11392797.431 22138928.992 10 0 60135 27900.00000 0 -2862019.859 -11069463.252 22817980.947 10 0 60135 28800.00000 0 -38007.749 -10945295.487 23054646.122 10 0 60135 29700.00000 0 2789360.235 -11027135.743 22844271.626 10 0 60135 30600.00000 0 5550618.742 -11309582.859 22190853.810 10 0 60135 31500.00000 0 8178776.549 -11775224.860 21106967.886 10 0 60135 32400.00000 0 10611854.665 -12395392.328 19613533.508 10 0 60135 33300.00000 0 12795220.517 -13131402.444 17739419.932 10 0 60135 34200.00000 0 14683622.030 -13936242.363 15520897.347 10 0 60135 35100.00000 0 16242837.466 -14756622.109 13000943.810 10 0 60135 36000.00000 0 17450872.568 -15535311.305 10228420.141 10 0 60135 36900.00000 0 18298655.018 -16213661.794 7257127.850 10 0 60135 37800.00000 0 18790197.194 -16734209.832 4144767.767 10 0 60135 38700.00000 0 18942220.326 -17043247.705 951819.299 10 0 60135 39600.00000 0 18783255.949 -17093255.395 -2259637.772 10 0 60135 40500.00000 0 18352262.677 -16845088.474 -5427135.614 10 0 60135 41400.00000 0 17696817.001 -16269828.378 -8489040.500 10 0 60135 42300.00000 0 16870955.087 -15350215.390 -11385760.070 10 0 60135 43200.00000 0 15932757.442 -14081602.254 -14060911.249 10 0 60135 44100.00000 0 14941779.333 -12472386.699 -16462425.187 10 0 60135 45000.00000 0 13956436.383 -10543903.289 -18543566.903 10 0 60135 45900.00000 0 13031456.527 -8329777.991 -20263849.264 10 0 60135 46800.00000 0 12215506.526 -5874771.612 -21589823.226 10 0 60135 47700.00000 0 11549093.581 -3233159.824 -22495728.893 10 0 60135 48600.00000 0 11062830.688 -466717.034 -22963994.921 10 0 60135 49500.00000 0 10776138.712 2357612.194 -22985576.890 10 0 60135 50400.00000 0 10696439.525 5170257.350 -22560128.477 10 0 60135 51300.00000 0 10818873.662 7901676.196 -21696002.573 10 0 60135 52200.00000 0 11126553.679 10485008.946 -20410082.737 10 0 60135 53100.00000 0 11591341.843 12858622.390 -18727448.637 10 0 60135 54000.00000 0 12175118.610 14968438.796 -16680882.308 10 0 60135 54900.00000 0 12831487.716 16769953.435 -14310225.039 10 0 60135 55800.00000 0 13507845.333 18229857.687 -11661597.671 10 0 60135 56700.00000 0 14147725.451 19327201.252 -8786499.638 10 0 60135 57600.00000 0 14693322.043 20054046.345 -5740804.524 10 0 60135 58500.00000 0 15088081.189 20415588.007 -2583671.927 10 0 60135 59400.00000 0 15279253.491 20429737.112 623602.943 10 0 60135 60300.00000 0 15220298.843 20126185.112 3818779.358 10 0 60135 61200.00000 0 14873042.007 19544991.195 6939877.505 10 0 60135 62100.00000 0 14209487.977 18734752.473 9926377.777 10 0 60135 63000.00000 0 13213220.574 17750434.993 12720389.753 10 0 60135 63900.00000 0 11880325.208 16650957.370 15267768.441 10 0 60135 64800.00000 0 10219796.701 15496628.797 17519156.619 10 0 60135 65700.00000 0 8253414.495 14346548.956 19430933.796 10 0 60135 66600.00000 0 6015089.703 13256078.569 20966054.129 10 0 60135 67500.00000 0 3549710.186 12274486.122 22094757.995 10 0 60135 68400.00000 0 911530.496 11442868.658 22795144.219 10 0 60135 69300.00000 0 -1837827.776 10792433.107 23053592.546 10 0 60135 70200.00000 0 -4631683.807 10343209.493 22865028.614 10 0 60135 71100.00000 0 -7400819.367 10103249.558 22233026.401 10 0 60135 72000.00000 0 -10076111.592 10068344.239 21169745.913 10 0 60135 72900.00000 0 -12591168.925 10222271.962 19695706.737 10 0 60135 73800.00000 0 -14884862.012 10537567.786 17839400.949 10 0 60135 74700.00000 0 -16903645.237 10976781.637 15636751.798 10 0 60135 75600.00000 0 -18603572.908 11494173.407 13130427.492 10 0 60135 76500.00000 0 -19951926.305 12037774.162 10369022.244 10 0 60135 77400.00000 0 -20928383.658 12551727.000 7406119.570 10 0 60135 78300.00000 0 -21525683.949 12978808.923 4299255.340 10 0 60135 79200.00000 0 -21749756.486 13263026.955 1108800.408 10 0 60135 80100.00000 0 -21619310.617 13352178.177 -2103215.334 10 0 60135 81000.00000 0 -21164902.775 13200264.383 -5274314.225 10 0 60135 81900.00000 0 -20427520.290 12769657.981 -8342793.130 10 0 60135 82800.00000 0 -19456741.993 12032926.009 -11248932.048 10 0 60135 83700.00000 0 -18308553.773 10974233.591 -13936164.542 10 0 60135 84600.00000 0 -17042911.902 9590265.972 -16352186.307 10 0 60135 85500.00000 0 -15721157.718 7890628.719 -18449979.474 10 0 60136 0.00000 0 -14403393.490 5897708.097 -20188732.047 10 0 60136 900.00000 0 -13145930.003 3645995.175 -21534635.148 10 0 60136 1800.00000 0 -11998915.495 1180903.802 -22461540.238 10 0 60136 2700.00000 0 -11004243.559 -1442872.346 -22951466.826 10 0 60136 3600.00000 0 -10193829.608 -4163392.991 -22994948.696 10 0 60136 4500.00000 0 -9588327.249 -6913811.315 -22591213.328 10 0 60136 5400.00000 0 -9196337.935 -9624923.549 -21748191.337 10 0 60136 6300.00000 0 -9014146.219 -12227822.249 -20482356.144 10 0 60136 7200.00000 0 -9025990.688 -14656543.150 -18818397.394 10 0 60136 8100.00000 0 -9204858.082 -16850595.902 -16788734.781 10 0 60136 9000.00000 0 -9513766.022 -18757273.885 -14432881.967 10 0 60136 9900.00000 0 -9907479.269 -20333647.563 -11796673.214 10 0 60136 10800.00000 0 -10334586.179 -21548159.175 -8931367.972 10 0 60136 11700.00000 0 -10739846.928 -22381753.261 -5892651.036 10 0 60136 12600.00000 0 -11066713.708 -22828496.968 -2739548.009 10 0 60136 13500.00000 0 -11259915.930 -22895665.531 466722.587 10 0 60136 14400.00000 0 -11268000.880 -22603290.704 3663938.034 10 0 60136 15300.00000 0 -11045722.268 -21983192.395 6790077.615 10 0 60136 16200.00000 0 -10556175.693 -21077535.333 9784522.816 10 0 60136 17100.00000 0 -9772590.777 -19936972.297 12589228.323 10 0 60136 18000.00000 0 -8679704.312 -18618452.518 15149841.331 10 0 60136 18900.00000 0 -7274656.337 -17182787.545 17416747.958 10 0 60136 19800.00000 0 -5567370.992 -15692076.635 19346027.156 10 0 60136 20700.00000 0 -3580405.487 -14207099.233 20900294.423 10 0 60136 21600.00000 0 -1348272.475 -12784783.131 22049419.839 10 0 60136 22500.00000 0 1083737.177 -11475853.444 22771107.364 10 0 60136 23400.00000 0 3661183.636 -10322759.868 23051324.831 10 0 60136 24300.00000 0 6322493.285 -9357968.044 22884576.757 10 0 60136 25200.00000 0 9001277.821 -8602685.686 22274014.829 10 0 60136 26100.00000 0 11628862.650 -8066076.283 21231383.662 10 0 60136 27000.00000 0 14136921.144 -7744992.933 19776802.331 10 0 60136 27900.00000 0 16460106.681 -7624243.481 17938385.010 10 0 60136 28800.00000 0 18538573.993 -7677375.979 15751706.990 10 0 60136 29700.00000 0 20320285.547 -7867951.828 13259125.276 10 0 60136 30600.00000 0 21763007.075 -8151253.384 10508965.765 10 0 60136 31500.00000 0 22835908.896 -8476354.365 7554591.885 10 0 60136 32400.00000 0 23520705.730 -8788465.793 4453372.071 10 0 60136 33300.00000 0 23812286.861 -9031458.188 1265565.818 10 0 60136 34200.00000 0 23718809.736 -9150452.810 -1946849.949 10 0 60136 35100.00000 0 23261252.713 -9094371.483 -5121390.970 10 0 60136 36000.00000 0 22472445.607 -8818335.868 -8196287.971 10 0 60136 36900.00000 0 21395618.905 -8285813.257 -11111696.502 10 0 60136 37800.00000 0 20082533.031 -7470416.543 -13810869.795 10 0 60136 38700.00000 0 18591266.954 -6357280.667 -16241270.882 10 0 60136 39600.00000 0 16983759.898 -4943955.856 -18355601.518 10 0 60136 40500.00000 0 15323210.279 -3240778.524 -20112727.324 10 0 60136 41400.00000 0 13671441.893 -1270702.928 -21478480.839 10 0 60136 42300.00000 0 12086348.482 931400.479 -22426326.753 10 0 60136 43200.00000 0 10619524.248 3319951.453 -22937876.572 10 0 60136 44100.00000 0 9314179.613 5840321.403 -23003243.025 10 0 60136 45000.00000 0 8203429.316 8430880.928 -22621227.719 10 0 60136 45900.00000 0 7309023.864 11025348.472 -21799338.872 10 0 60136 46800.00000 0 6640576.572 13555342.486 -20553639.212 10 0 60136 47700.00000 0 6195317.373 15953031.046 -18908427.362 10 0 60136 48600.00000 0 5958382.391 18153768.842 -16895759.249 10 0 60136 49500.00000 0 5903625.619 20098612.063 -14554819.054 10 0 60136 50400.00000 0 5994917.190 21736606.751 -11931152.215 10 0 60136 51300.00000 0 6187872.166 23026755.781 -9075775.563 10 0 60136 52200.00000 0 6431935.808 23939583.084 -6044182.147 10 0 60136 53100.00000 0 6672736.280 24458230.606 -2895260.350 10 0 60136 54000.00000 0 6854604.656 24579043.149 309851.409 10 0 60136 54900.00000 0 6923155.129 24311617.698 3508951.907 10 0 60136 55800.00000 0 6827816.009 23678316.291 6639982.985 10 0 60136 56700.00000 0 6524204.306 22713263.888 9642230.556 10 0 60136 57600.00000 0 5976243.487 21460874.166 12457497.530 10 0 60136 58500.00000 0 5157934.915 19973965.676 15031226.140 10 0 60136 59400.00000 0 4054708.138 18311547.693 17313548.376 10 0 60136 60300.00000 0 2664292.851 16536368.489 19260244.833 10 0 60136 61200.00000 0 997075.345 14712328.354 20833594.194 10 0 60136 62100.00000 0 -924076.366 12901864.912 22003097.715 10 0 60136 63000.00000 0 -3064512.605 11163419.145 22746065.573 10 0 60136 63900.00000 0 -5378999.441 9549086.936 23048054.336 10 0 60136 64800.00000 0 -7813365.206 8102553.135 22903147.590 10 0 60136 65700.00000 0 -10306529.353 6857393.356 22314074.413 10 0 60136 66600.00000 0 -12792830.989 5835813.579 21292163.173 10 0 60136 67500.00000 0 -15204561.961 5047879.569 19857131.029 10 0 60136 68400.00000 0 -17474600.607 4491267.917 18036712.297 10 0 60136 69300.00000 0 -19539037.646 4151548.968 15866131.856 10 0 60136 70200.00000 0 -21339685.617 4002989.743 13387432.613 10 0 60136 71100.00000 0 -22826367.514 4009843.243 10648668.924 10 0 60136 72000.00000 0 -23958888.976 4128069.932 7702980.675 10 0 60136 72900.00000 0 -24708611.148 4307418.852 4607565.311 10 0 60136 73800.00000 0 -25059557.726 4493780.261 1422567.411 10 0 60136 74700.00000 0 -25009009.051 4631709.886 -1790092.536 10 0 60136 75600.00000 0 -24567557.614 4667017.191 -4967926.989 10 0 60136 76500.00000 0 -23758622.146 4549307.055 -8049103.657 10 0 60136 77400.00000 0 -22617440.396 4234365.899 -10973656.533 10 0 60136 78300.00000 0 -21189582.964 3686289.822 -13684661.127 10 0 60136 79200.00000 0 -19529050.897 2879263.145 -16129350.086 10 0 60136 80100.00000 0 -17696037.481 1798910.639 -18260146.672 10 0 60136 81000.00000 0 -15754448.803 443164.910 -20035595.415 10 0 60136 81900.00000 0 -13769287.744 -1177388.981 -21421171.500 10 0 60136 82800.00000 0 -11804011.588 -3039707.314 -22389953.061 10 0 60136 83700.00000 0 -9917974.299 -5109012.776 -22923143.456 10 0 60136 84600.00000 0 -8164060.516 -7340021.229 -23010433.703 10 0 60136 85500.00000 0 -6586610.052 -9678619.394 -22650198.407 10 0 60137 0.00000 0 -5219719.146 -12063923.630 -21849521.953 10 0 60137 900.00000 0 -4085987.916 -14430635.416 -20624054.352 10 0 60137 1800.00000 0 -3195766.933 -16711592.332 -18997701.103 10 0 60137 2700.00000 0 -2546930.587 -18840412.545 -17002152.005 10 0 60137 3600.00000 0 -2125186.956 -20754119.551 -14676259.272 10 0 60137 4500.00000 0 -1904908.745 -22395639.095 -12065276.960 10 0 60137 5400.00000 0 -1850448.802 -23716064.203 -9219976.741 10 0 60137 6300.00000 0 -1917883.320 -24676594.079 -6195657.433 10 0 60137 7200.00000 0 -2057107.848 -25250066.387 -3051067.819 10 0 60137 8100.00000 0 -2214196.553 -25422019.462 152736.034 10 0 60137 9000.00000 0 -2333924.189 -25191240.802 3353576.538 10 0 60137 9900.00000 0 -2362343.595 -24569779.672 6489360.110 10 0 60137 10800.00000 0 -2249309.402 -23582424.149 9499279.008 10 0 60137 11700.00000 0 -1950841.083 -22265665.245 12324986.196 10 0 60137 12600.00000 0 -1431225.502 -20666192.077 14911720.662 10 0 60137 13500.00000 0 -664770.145 -18838981.424 17209361.860 10 0 60137 14400.00000 0 362866.985 -16845061.578 19173393.467 10 0 60137 15300.00000 0 1653827.104 -14749043.713 20765758.590 10 0 60137 16200.00000 0 3197716.335 -12616523.223 21955590.685 10 0 60137 17100.00000 0 4971802.285 -10511458.582 22719806.919 10 0 60137 18000.00000 0 6941734.514 -8493635.965 23043553.124 10 0 60137 18900.00000 0 9062760.286 -6616324.102 22920492.234 10 0 60137 19800.00000 0 11281386.611 -4924215.919 22352930.754 10 0 60137 20700.00000 0 13537421.045 -3451741.678 21351780.623 10 0 60137 21600.00000 0 15766307.967 -2221823.053 19936356.668 10 0 60137 22500.00000 0 17901664.577 -1245119.454 18134012.714 10 0 60137 23400.00000 0 19877912.168 -519797.642 15979622.357 10 0 60137 24300.00000 0 21632893.805 -31833.998 13514913.268 10 0 60137 25200.00000 0 23110369.580 244163.361 10787666.827 10 0 60137 26100.00000 0 24262285.102 343647.257 7850797.631 10 0 60137 27000.00000 0 25050717.904 310394.084 4761330.057 10 0 60137 27900.00000 0 25449419.475 194409.922 1579291.375 10 0 60137 28800.00000 0 25444887.336 49569.066 -1633457.014 10 0 60137 29700.00000 0 25036921.193 -68914.506 -4814427.133 10 0 60137 30600.00000 0 24238638.938 -107074.695 -7901726.606 10 0 60137 31500.00000 0 23075951.161 -14729.168 -10835270.791 10 0 60137 32400.00000 0 21586515.829 252145.181 -13557960.286 10 0 60137 33300.00000 0 19818216.920 729299.176 -16016800.001 10 0 60137 34200.00000 0 17827231.042 1442451.556 -18163937.149 10 0 60137 35100.00000 0 15675763.461 2405958.165 -19957597.386 10 0 60137 36000.00000 0 13429548.866 3621967.621 -21362900.543 10 0 60137 36900.00000 0 11155221.954 5080100.130 -22352539.965 10 0 60137 37800.00000 0 8917668.146 6757663.970 -22907312.385 10 0 60137 38700.00000 0 6777465.235 8620401.329 -23016488.350 10 0 60137 39600.00000 0 4788522.684 10623732.824 -22678016.381 10 0 60137 40500.00000 0 2996016.611 12714449.053 -21898557.388 10 0 60137 41400.00000 0 1434705.822 14832778.731 -20693349.078 10 0 60137 42300.00000 0 127698.070 16914747.135 -19085903.402 10 0 60137 43200.00000 0 -914283.365 18894726.444 -17107543.235 10 0 60137 44100.00000 0 -1693103.773 20708071.514 -14796787.554 10 0 60137 45000.00000 0 -2222885.029 22293730.981 -12198597.307 10 0 60137 45900.00000 0 -2529153.308 23596724.663 -9363496.833 10 0 60137 46800.00000 0 -2647504.137 24570383.833 -6346588.150 10 0 60137 47700.00000 0 -2621842.592 25178260.857 -3206477.528 10 0 60137 48600.00000 0 -2502274.278 25395628.634 -4135.491 10 0 60137 49500.00000 0 -2342737.254 25210507.495 3198287.373 10 0 60137 50400.00000 0 -2198475.770 24624177.110 6338665.524 10 0 60137 51300.00000 0 -2123463.146 23651152.489 9356101.028 10 0 60137 52200.00000 0 -2167883.014 22318625.663 12192100.275 10 0 60137 53100.00000 0 -2375775.396 20665396.786 14791702.233 10 0 60137 54000.00000 0 -2782947.018 18740339.642 17104536.829 10 0 60137 54900.00000 0 -3415233.960 16600465.633 19085793.574 10 0 60137 55800.00000 0 -4287189.894 14308666.796 20697082.453 10 0 60137 56700.00000 0 -5401255.399 11931231.370 21907171.243 10 0 60137 57600.00000 0 -6747443.790 9535234.530 22692585.843 10 0 60137 58500.00000 0 -8303557.554 7185911.868 23038062.662 10 0 60137 59400.00000 0 -10035927.528 4944123.647 22936844.809 10 0 60137 60300.00000 0 -11900645.431 2864014.037 22390816.509 10 0 60137 61200.00000 0 -13845239.866 990961.525 21410472.975 10 0 60137 62100.00000 0 -15810727.556 -640095.289 20014725.806 10 0 60137 63000.00000 0 -17733955.770 -2005887.643 18230546.817 10 0 60137 63900.00000 0 -19550139.513 -3095551.668 16092456.207 10 0 60137 64800.00000 0 -21195488.484 -3910838.290 13641863.773 10 0 60137 65700.00000 0 -22609814.596 -4465789.513 10926274.828 10 0 60137 66600.00000 0 -23739010.991 -4785894.862 7998375.248 10 0 60137 67500.00000 0 -24537298.382 -4906763.662 4915012.686 10 0 60137 68400.00000 0 -24969143.772 -4872369.347 1736093.340 10 0 60137 69300.00000 0 -25010769.976 -4732940.322 -1476584.255 10 0 60137 70200.00000 0 -24651191.407 -4542587.129 -4660535.374 10 0 60137 71100.00000 0 -23892731.396 -4356767.134 -7753811.115 10 0 60137 72000.00000 0 -22750998.288 -4229695.129 -10696211.548 10 0 60137 72900.00000 0 -21254320.486 -4211810.692 -13430465.459 10 0 60137 73800.00000 0 -19442663.639 -4347410.844 -15903352.790 10 0 60137 74700.00000 0 -17366075.177 -4672549.509 -18066747.074 10 0 60137 75600.00000 0 -15082721.419 -5213293.891 -19878556.990 10 0 60137 76500.00000 0 -12656599.628 -5984412.552 -21303548.354 10 0 60137 77400.00000 0 -10155021.018 -6988551.595 -22314030.457 10 0 60137 78300.00000 0 -7645970.112 -8215934.496 -22890393.518 10 0 60137 79200.00000 0 -5195450.766 -9644598.913 -23021487.117 10 0 60137 80100.00000 0 -2864929.507 -11241161.041 -22704832.647 10 0 60137 81000.00000 0 -708982.341 -12962075.804 -21946666.099 10 0 60137 81900.00000 0 1226757.538 -14755340.329 -20761810.808 10 0 60137 82800.00000 0 2907266.611 -16562569.411 -19173382.982 10 0 60137 83700.00000 0 4309344.209 -18321356.155 -17212336.096 10 0 60137 84600.00000 0 5422322.968 -19967818.914 -14916853.246 10 0 60137 85500.00000 0 6248248.600 -21439227.846 -12331599.520 99